Fargo, ND

2:15 AM CDT on October 23, 2019 (GMT -0500)
Hector International

Weather History for KFAR - August, 2019

Change the Weather History Date:

Saturday, August 24, 2019

  Actual Average Record
Temperature  
Mean Temperature 71 °F 68 °F  
Max Temperature 79 °F 80 °F 100 °F (1948)
Min Temperature 63 °F 56 °F 38 °F (1887)
Degree Days  
Heating Degree Days 0 2  
Month to date heating degree days 19 21  
Since 1 June heating degree days 83 110  
Since 1 July heating degree days 25 37  
Cooling Degree Days 6 4  
Month to date cooling degree days 92 141  
Year to date cooling degree days 470 481  
Since 1 June cooling degree days 460 450  
Growing Degree Days 21 (Base 50)    
Moisture  
Dew Point 59 °F    
Average Humidity 69    
Maximum Humidity 90    
Minimum Humidity 52    
Precipitation  
Precipitation 0.00 in 0.10 in 1.41 in (1995)
Month to date precipitation 2.29 1.91  
Year to date precipitation 18.63 15.38  
Snow  
Snow 0.00 in 0.00 in 0.00 in ()
Month to date snowfall 0.0 0.0  
Since 1 June snowfall 0.0 0.0  
Since 1 July snowfall 0.0 0.0  
Snow Depth 0.00 in    
Sea Level Pressure  
Sea Level Pressure 30.03 in    
Wind  
Wind Speed 14 mph ()    
Max Wind Speed 28 mph    
Max Gust Speed 40 mph    
Visibility 10.0 miles    
Events      
T = Trace of Precipitation, MM = Missing Value Source: Averaged Metar Reports

Daily Weather History Graph

Daily Weather History Graph

Search for Another Location

Airport or City:

Astronomy

Aug. 24, 2019 Rise Set
Actual Time 6:36 AM CDT 8:22 PM CDT
Civil Twilight 6:03 AM CDT 8:54 PM CDT
Nautical Twilight 5:24 AM CDT 9:33 PM CDT
Astronomical Twilight 4:40 AM CDT 10:16 PM CDT
Moon 12:22 AM CDT (8/24) 3:49 PM CDT (8/24)
Length of Visible Light 14h 50m
Length of Day
13h 46m
Last Quarter, 39% of the Moon is Illuminated
Aug 24
Last Quarter
Aug 30
New
Sep 5
First Quarter
Sep 13
Full
Sep 21
Last Quarter

Hourly Weather History & Observations

Time (CDT) Temp. Dew Point Humidity Pressure Visibility Wind Dir Wind Speed Gust Speed Precip Events Conditions
12:53 AM 64.9 °F 57.0 °F 75% 30.10 in 10.0 mi SE 11.5 mph - N/A   Clear
1:53 AM 64.9 °F 57.0 °F 75% 30.09 in 10.0 mi SE 12.7 mph 23.0 mph N/A   Clear
2:53 AM 64.0 °F 57.9 °F 80% 30.09 in 10.0 mi SSE 12.7 mph 23.0 mph N/A   Clear
3:53 AM 63.0 °F 59.0 °F 87% 30.09 in 10.0 mi SSE 13.8 mph 23.0 mph N/A   Clear
4:53 AM 63.0 °F 59.0 °F 87% 30.09 in 10.0 mi SSE 12.7 mph - N/A   Clear
5:53 AM 63.0 °F 59.0 °F 87% 30.08 in 10.0 mi SSE 15.0 mph 23.0 mph N/A   Clear
6:53 AM 63.0 °F 59.0 °F 87% 30.08 in 10.0 mi SSE 15.0 mph - N/A   Clear
7:53 AM 64.0 °F 59.0 °F 84% 30.08 in 10.0 mi SSE 13.8 mph - N/A   Clear
8:53 AM 66.0 °F 59.0 °F 78% 30.06 in 10.0 mi SSE 13.8 mph 31.1 mph N/A   Clear
9:53 AM 69.1 °F 60.1 °F 73% 30.06 in 10.0 mi SSE 17.3 mph 28.8 mph N/A   Clear
10:53 AM 72.0 °F 61.0 °F 68% 30.06 in 10.0 mi SSE 20.7 mph 32.2 mph N/A   Clear
11:53 AM 75.0 °F 62.1 °F 64% 30.04 in 10.0 mi SSE 18.4 mph 29.9 mph N/A   Clear
12:53 PM 77.0 °F 62.1 °F 60% 30.01 in 10.0 mi SE 20.7 mph 33.4 mph N/A   Clear
1:53 PM 79.0 °F 63.0 °F 58% 30.00 in 10.0 mi SSE 24.2 mph 35.7 mph N/A   Clear
2:53 PM 79.0 °F 61.0 °F 54% 30.00 in 10.0 mi SSE 20.7 mph 36.8 mph N/A   Clear
3:53 PM 78.1 °F 60.1 °F 54% 30.00 in 10.0 mi SSE 19.6 mph 33.4 mph N/A   Clear
4:53 PM 78.1 °F 60.1 °F 54% 29.99 in 10.0 mi SSE 15.0 mph 34.5 mph N/A   Clear
5:53 PM 78.1 °F 59.0 °F 52% 29.98 in 10.0 mi SSE 16.1 mph 31.1 mph N/A   Clear
6:53 PM 75.9 °F 57.9 °F 54% 29.98 in 10.0 mi SSE 23.0 mph 33.4 mph N/A   Clear
7:53 PM 73.0 °F 57.0 °F 57% 29.98 in 10.0 mi SSE 15.0 mph 28.8 mph N/A   Clear
8:53 PM 71.1 °F 55.9 °F 59% 29.98 in 10.0 mi SSE 18.4 mph 29.9 mph N/A   Clear
9:53 PM 69.1 °F 55.9 °F 63% 29.97 in 10.0 mi SSE 17.3 mph 28.8 mph N/A   Clear
10:53 PM 66.9 °F 55.9 °F 68% 29.96 in 10.0 mi SSE 18.4 mph 29.9 mph N/A   Clear
11:53 PM 66.0 °F 55.9 °F 70% 29.96 in 10.0 mi SSE 15.0 mph 28.8 mph N/A   Clear